| time (UTC) | temp F | wind direction | speed knots | gust knots | rain 1hr in | rain 24hr in | rain mn in | humidity % | barometer mb |
| 20260505061535 | 53 | 122 | 1.7 | 5.2 | 0.00 | 0.00 | 0.00 | 67 | 1007.6 |
| 20260505060053 | 53 | 98 | 0.9 | 5.2 | 0.00 | 0.00 | 0.00 | 67 | 1007.7 |
| 20260505054537 | 53 | 0 | 0.9 | 3.5 | 0.00 | 0.00 | 0.00 | 67 | 1007.5 |
| 20260505053038 | 53 | 124 | 0.9 | 4.3 | 0.00 | 0.00 | 0.00 | 66 | 1007.6 |
| 20260505051535 | 53 | 157 | 0.9 | 4.3 | 0.00 | 0.00 | 0.00 | 66 | 1007.8 |
| 20260505041549 | 55 | 136 | 0.9 | 7.0 | 0.00 | 0.00 | 0.00 | 62 | 1007.7 |
| 20260505040041 | 55 | 0 | 0.9 | 4.3 | 0.00 | 0.00 | 0.00 | 61 | 1007.7 |
| 20260505040027 | 56 | 139 | 0.9 | 0.9 | 0.00 | 0.00 | 0.00 | 61 | 1007.7 |
| 20260505034537 | 55 | 0 | 0.9 | 3.5 | 0.00 | 0.00 | 0.00 | 60 | 1007.4 |
| 20260505033037 | 55 | 0 | 0.0 | 2.6 | 0.00 | 0.00 | 0.00 | 59 | 1007.4 |
| 20260505031536 | 54 | 116 | 0.9 | 2.6 | 0.00 | 0.00 | 0.00 | 61 | 1007.4 |
| 20260505030044 | 53 | 0 | 0.0 | 1.7 | 0.00 | 0.00 | 0.00 | 65 | 1007.3 |
| 20260505024534 | 52 | 0 | 0.0 | 0.0 | 0.00 | 0.00 | 0.00 | 66 | 1007.2 |
| 20260505023109 | 52 | 0 | 0.0 | 0.0 | 0.00 | 0.00 | 0.00 | 68 | 1007.2 |
| 20260505021537 | 51 | 0 | 0.0 | 0.0 | 0.00 | 0.00 | 0.00 | 69 | 1007.2 |
| 20260505020040 | 52 | 0 | 0.0 | 0.0 | 0.00 | 0.00 | 0.00 | 69 | 1007.2 |
| 20260505014559 | 52 | 0 | 0.0 | 0.0 | 0.00 | 0.00 | 0.00 | 69 | 1007.1 |
| 20260505013046 | 53 | 0 | 0.0 | 0.0 | 0.00 | 0.00 | 0.00 | 67 | 1007.1 |
| 20260505011540 | 54 | 0 | 0.0 | 0.0 | 0.00 | 0.00 | 0.00 | 64 | 1007.1 |
| 20260505010051 | 56 | 0 | 0.0 | 0.0 | 0.00 | 0.00 | 0.00 | 61 | 1007.0 |
| 20260505004546 | 57 | 0 | 0.0 | 0.0 | 0.00 | 0.00 | 0.00 | 58 | 1006.8 |
| 20260505003052 | 58 | 0 | 0.0 | 0.0 | 0.00 | 0.00 | 0.00 | 55 | 1006.6 |
| 20260505001537 | 59 | 0 | 0.0 | 0.0 | 0.00 | 0.00 | 0.00 | 52 | 1006.3 |
| 20260505000037 | 60 | 0 | 0.0 | 0.9 | 0.00 | 0.00 | 0.00 | 51 | 1006.2 |
| 20260504234533 | 62 | 0 | 0.0 | 0.9 | 0.00 | 0.00 | 0.00 | 47 | 1005.9 |
| 20260504233037 | 63 | 0 | 0.0 | 2.6 | 0.00 | 0.00 | 0.00 | 45 | 1005.8 |
| 20260504231537 | 65 | 0 | 0.0 | 2.6 | 0.00 | 0.00 | 0.00 | 40 | 1005.6 |
| 20260504230035 | 66 | 47 | 0.0 | 7.8 | 0.00 | 0.00 | 0.00 | 35 | 1005.3 |
| 20260504224534 | 66 | 0 | 1.7 | 6.1 | 0.00 | 0.00 | 0.00 | 35 | 1005.2 |
| 20260504223046 | 66 | 22 | 1.7 | 6.1 | 0.00 | 0.00 | 0.00 | 35 | 1005.3 |
| 20260504221537 | 66 | 12 | 0.0 | 5.2 | 0.00 | 0.00 | 0.00 | 39 | 1005.1 |
| 20260504220036 | 67 | 329 | 1.7 | 10.4 | 0.00 | 0.00 | 0.00 | 35 | 1005.0 |
| 20260504214537 | 67 | 205 | 1.7 | 9.6 | 0.00 | 0.00 | 0.00 | 35 | 1004.9 |
| 20260504213036 | 67 | 292 | 1.7 | 9.6 | 0.00 | 0.00 | 0.00 | 36 | 1004.9 |
| 20260504211551 | 67 | 128 | 1.7 | 7.8 | 0.00 | 0.00 | 0.00 | 36 | 1005.0 |
| 20260504210043 | 67 | 348 | 1.7 | 11.3 | 0.00 | 0.00 | 0.00 | 34 | 1005.3 |
| 20260504204535 | 67 | 184 | 1.7 | 9.6 | 0.00 | 0.00 | 0.00 | 36 | 1005.3 |
| 20260504203037 | 67 | 173 | 2.6 | 13.0 | 0.00 | 0.00 | 0.00 | 37 | 1005.2 |
| 20260504201534 | 67 | 240 | 1.7 | 10.4 | 0.00 | 0.00 | 0.00 | 39 | 1005.3 |
| 20260504200036 | 66 | 240 | 2.6 | 7.8 | 0.00 | 0.00 | 0.00 | 37 | 1005.5 |
| 20260504194542 | 67 | 301 | 2.6 | 11.3 | 0.00 | 0.00 | 0.00 | 38 | 1005.6 |
| 20260504193038 | 67 | 116 | 2.6 | 9.6 | 0.00 | 0.00 | 0.00 | 37 | 1005.5 |
| 20260504191537 | 67 | 357 | 1.7 | 7.8 | 0.00 | 0.00 | 0.00 | 38 | 1005.7 |
| 20260504190038 | 66 | 0 | 2.6 | 12.2 | 0.00 | 0.00 | 0.00 | 39 | 1005.8 |
| 20260504184545 | 64 | 132 | 3.5 | 9.6 | 0.00 | 0.00 | 0.00 | 41 | 1005.9 |
| 20260504183036 | 64 | 0 | 0.9 | 10.4 | 0.00 | 0.00 | 0.00 | 41 | 1006.0 |
| 20260504181536 | 64 | 0 | 1.7 | 7.0 | 0.00 | 0.00 | 0.00 | 40 | 1005.9 |
| 20260504180035 | 64 | 157 | 1.7 | 6.1 | 0.00 | 0.00 | 0.00 | 39 | 1005.9 |
| 20260504174540 | 63 | 163 | 1.7 | 14.8 | 0.00 | 0.00 | 0.00 | 43 | 1005.9 |
| 20260504173037 | 61 | 132 | 0.9 | 6.1 | 0.00 | 0.00 | 0.00 | 47 | 1006.0 |
| 20260504171537 | 60 | 225 | 1.7 | 8.7 | 0.00 | 0.00 | 0.00 | 47 | 1006.3 |
| 20260504081539 | 41 | 151 | 0.0 | 1.7 | 0.00 | 0.00 | 0.00 | 80 | 1008.1 |